Regional Weather Roundup
Issued by NWS

Home | Current Version | Previous Version | Graphics & Text | Print | Product List | Glossary On
Versions: 1 2 3 4 5 6 7 8 9 10 11 12 13 14 15 16 17 18 19 20 21 22 23 24 25 26 27 28 29 30 31 32 33 34 35 36 37 38 39 40 41 42 43 44 45 46 47 48 49 50
000
ASUS43 KMKX 052200
RWRWI

WISCONSIN REGIONAL WEATHER ROUNDUP
NATIONAL WEATHER SERVICE MILWAUKEE/SULLIVAN WI
500 PM CDT TUE MAY 05 2015

NOTE: "FAIR" INDICATES FEW OR NO CLOUDS BELOW 12,000 FEET WITH NO
SIGNIFICANT WEATHER AND/OR OBSTRUCTIONS TO VISIBILITY.

WIZ001-002-006>008-014>016-023>028-052300-
NORTHWEST WISCONSIN

CITY           SKY/WX    TMP DP  RH WIND       PRES   REMARKS
SUPERIOR ARPT  SUNNY     53  32  44 E8        30.17F
ASHLAND        SUNNY     62  40  44 N12       30.18F
HAYWARD        SUNNY     72  25  17 S13       30.16F
SIREN          SUNNY     74  32  21 SE14G21   30.15F
CUMBERLAND     MOSUNNY   70  28  21 SE15G24   30.17F
RICE LAKE      MOSUNNY   71  30  22 SE17      30.19F
CHETEK         MOSUNNY   67  34  29 E9G17     30.18F
LADYSMITH      MOSUNNY   71  30  21 S12       30.21F
EAU CLAIRE     NOT AVBL
MENOMONIE      CLOUDY    66  33  29 SE14G21   30.19S
NEW RICHMOND   PTSUNNY   69  31  24 SE17G24   30.16F
OSCEOLA        PTSUNNY   70  39  32 SE17      30.17F
$$

WIZ003>005-009-010-017-018-052300-
NORTH CENTRAL WISCONSIN

CITY           SKY/WX    TMP DP  RH WIND       PRES   REMARKS
MANITOWISH WTR SUNNY     69  31  23 SE5G16    30.20F
ARBOR VITAE    SUNNY     72  31  22 SE10G17   30.21F
WOODRUFF       SUNNY     72  31  22 SE10G17   30.21F
RHINELANDER    SUNNY     68  27  21 S12G18    30.23F
EAGLE RIVER    SUNNY     70  25  19 E8        30.21F
LAND O LAKES   SUNNY     72  25  17 SE8G16    30.22F
PHILLIPS       SUNNY     69  29  22 S13G18    30.20F
TOMAHAWK       MOSUNNY   69  28  21 S6        30.23F
MEDFORD        PTSUNNY   64  28  24 SE9G20    30.22F
MERRILL        PTSUNNY   66  25  21 S12       30.24F
$$

WIZ029-030-035-036-043>047-052300-
CENTRAL WISCONSIN

CITY           SKY/WX    TMP DP  RH WIND       PRES   REMARKS
WAUSAU         PTSUNNY   66  22  18 SE13      30.21F
MOSINEE        MOSUNNY   63  25  23 E10G20    30.24F
MARSHFIELD     CLOUDY    64  32  30 SE15      30.22F
STEVENS POINT  CLOUDY    62  29  29 E12       30.25F
WAUPACA        CLOUDY    64  29  26 SE12      30.25
WAUTOMA        NOT AVBL
WISC RAPIDS    CLOUDY    63  36  36 SE12G18   30.24F
CAMP DOUGLAS   NOT AVBL
$$

WIZ011>013-019>022-031-037>040-048>050-052300-
NORTHEAST WISCONSIN

CITY           SKY/WX    TMP DP  RH WIND       PRES   REMARKS
ANTIGO         MOSUNNY   64  33  31 S14G21    30.25F
SHAWANO        PTSUNNY   67  18  15 E9        30.27F
OCONTO         PTSUNNY   63  28  26 NE8       30.27F
STURGEON BAY   PTSUNNY   61  25  25 E7        30.30F
GREEN BAY      CLOUDY    65  20  17 SE10      30.26F
MANITOWOC      NOT AVBL
APPLETON       PTSUNNY   63  34  34 SE10      30.26F
CLINTONVILLE   CLOUDY    64  19  17 SE8G17    30.26F
OSHKOSH        CLOUDY    59  46  62 SE9       30.24F
$$

WIZ032>034-041-042-053>061-052300-
SOUTHWEST WISCONSIN

CITY           SKY/WX    TMP DP  RH WIND       PRES   REMARKS
LA CROSSE      LGT RAIN  57  53  86 SE8       30.19F
SPARTA         CLOUDY    58  48  69 E10G16    30.22F
VIROQUA        CLOUDY    53  53 100 E14       30.20F
BOSCOBEL       CLOUDY    56  53  90 NE6       30.19F FOG
PRAIRIE DU CHI CLOUDY    54  53  96 E9        30.18F
PLATTEVILLE    CLOUDY    56  54  94 E16       30.18F
$$

WIZ056-057-062-063-064-067-068-052300-
SOUTH CENTRAL WISCONSIN

CITY           SKY/WX    TMP DP  RH WIND       PRES   REMARKS
REEDSBURG      CLOUDY    54  52  92 E7        30.22F
BARABOO/DELLS  NOT AVBL
LONE ROCK      NOT AVBL
MINERAL POINT  LGT RAIN  55  54  94 E10       30.19F
MADISON        CLOUDY    56  51  84 E12       30.21F
MIDDLETON      CLOUDY    56  52  86 E6        30.22F
WATERTOWN      CLOUDY    55  51  87 E10       30.23S
MONROE         CLOUDY    54  52  94 NE9       30.20S
JANESVILLE     CLOUDY    52  50  93 E12G17    30.21F
$$

WIZ051-052-058>065-066-070>072-052300-
SOUTHEAST WISCONSIN

CITY           SKY/WX    TMP DP  RH WIND       PRES   REMARKS
MILWAUKEE      CLOUDY    48  43  82 NE8       30.25F
WAUKESHA       CLOUDY    48  45  87 E10       30.25F
MILWAUKEE/TIMM CLOUDY    50  43  76 E9        30.26F
RACINE         LGT RAIN  47  44  90 NE10      30.26F
BURLINGTON     DRIZZLE   47  45  95 E7        30.23F
KENOSHA        CLOUDY    48  46  93 E9        30.24F
FOND DU LAC    LGT RAIN  56  48  74 SE7       30.25F
SHEBOYGAN      CLOUDY    54  44  69 SE5       30.25F
WEST BEND      CLOUDY    52  43  71 E7        30.25F
JUNEAU         CLOUDY    55  47  74 E12       30.25S
$$

LSZ147-162-052300-
LAKE SUPERIOR

STATION/POSITION TIME  TEMP    WIND        PRES    WAVE
                       AIR SEA DIR/SP/G            HT/PER
                 (UTC) (F)     (DEG/KT/KT) (MB)    (FT/S)
W MID LAKE BUOY  2050   40 36   30/  8/ 10 1024.4F
DEVILS ISLAND    2100   43      70/ 12/ 13 1023.7F
PORT WING        2100   47      20/ 19/ 23 1021.0
SAXON HARBOR     2140   52      50/  2/  8 1021.7F
$$

LMZ867-665-643>646-052300-
LAKE MICHIGAN

STATION/POSITION TIME  TEMP    WIND        PRES    WAVE
                       AIR SEA DIR/SP/G            HT/PER
                 (UTC) (F)     (DEG/KT/KT) (MB)    (FT/S)
CHAMBERS ISLAND  2100   50     350/  5/  7 1025.7F
NORTHPORT PIER   2100   49     120/  3/  4 1025.7F
SISTER BAY       2102   70     120/  7/ 11   N/A
KEWAUNEE LAKESHO 2100   47      40/  4/  6 1024.8F
SHEBOYGAN LAKESH 2100   44      10/  5/  5 1026.3F
PORT WASHINGTON  2100   49      30/  4/  7 1025.7F
ATWATER BUOY     2100   45     360/  6/  8 1026.2F
MILWAUKEE LAKESH 2100   46      30/  8/ 10   N/A
KENOSHA   LAKESH 2100   44      30/ 11/ 14 1024.4F
$$

TC  - TEMPERATURE IN CELSIUS
VSB - VISIBILITY IN STATUTE MILES
WCI - WIND CHILL INDEX
HX  - HEAT INDEX




USA.gov is the U.S. government's official web portal to all federal, state and local government web resources and services.